TimePST,TemperatureF,Dew PointF,Humidity,Sea Level PressureIn,VisibilityMPH,Wind Direction,Wind SpeedMPH,Gust SpeedMPH,PrecipitationIn,Events,Conditions,WindDirDegrees,DateUTC
12:31 AM,42.8,42.8,100,29.62,4.0,SSE,6.9,-,0.04,Rain,Light Rain,150,2012-12-26 08:31:00
12:53 AM,43.0,42.1,97,29.62,4.0,Variable,4.6,-,0.04,Rain,Light Rain,0,2012-12-26 08:53:00
1:53 AM,43.0,42.1,97,29.63,4.0,SE,4.6,-,0.00,Rain,Light Rain,140,2012-12-26 09:53:00
2:22 AM,42.8,42.8,100,29.63,2.0,SE,5.8,-,0.03,Rain,Light Rain,140,2012-12-26 10:22:00
2:34 AM,42.8,42.8,100,29.63,4.0,Variable,3.5,-,0.03,Rain,Light Rain,0,2012-12-26 10:34:00
2:53 AM,43.0,42.1,97,29.64,3.0,Calm,Calm,-,0.04,Rain,Light Rain,0,2012-12-26 10:53:00
3:53 AM,43.0,42.1,97,29.64,4.0,SE,4.6,-,0.01,Rain,Light Rain,130,2012-12-26 11:53:00
4:12 AM,42.8,42.8,100,29.64,3.0,SE,6.9,-,0.00,Rain,Light Rain,130,2012-12-26 12:12:00
4:26 AM,42.8,42.8,100,29.64,2.0,SSE,3.5,-,0.01,Rain,Light Rain,160,2012-12-26 12:26:00
4:31 AM,42.8,42.8,100,29.64,1.8,SSE,3.5,-,0.02,Rain,Light Rain,150,2012-12-26 12:31:00
4:42 AM,42.8,42.8,100,29.64,2.0,SSE,6.9,-,0.03,Rain,Light Rain,150,2012-12-26 12:42:00
4:48 AM,42.8,42.8,100,29.64,3.0,Calm,Calm,-,0.03,Rain,Light Rain,0,2012-12-26 12:48:00
4:53 AM,43.0,42.1,97,29.64,4.0,Variable,4.6,-,0.03,,Overcast,0,2012-12-26 12:53:00
5:00 AM,42.8,42.8,100,29.64,4.0,SSE,5.8,-,0.00,Rain,Light Rain,150,2012-12-26 13:00:00
5:12 AM,42.8,42.8,100,29.64,2.5,Variable,4.6,-,0.00,Rain,Light Rain,0,2012-12-26 13:12:00
5:22 AM,42.8,42.8,100,29.64,2.0,SSE,5.8,-,0.01,,Overcast,150,2012-12-26 13:22:00
5:36 AM,42.8,42.8,100,29.64,1.2,Variable,5.8,-,0.01,Rain,Light Rain,0,2012-12-26 13:36:00
5:53 AM,43.0,42.1,97,29.65,1.0,SE,5.8,-,0.03,Rain,Light Rain,140,2012-12-26 13:53:00
6:12 AM,42.8,42.8,100,29.65,1.2,Calm,Calm,-,0.02,Rain,Light Rain,0,2012-12-26 14:12:00
6:33 AM,42.8,42.8,100,29.65,2.0,SE,6.9,-,0.04,Rain,Light Rain,140,2012-12-26 14:33:00
6:40 AM,42.8,42.8,100,29.65,3.0,SSE,9.2,-,0.04,Rain,Light Rain,150,2012-12-26 14:40:00
6:51 AM,42.8,42.8,100,29.66,1.8,SE,4.6,-,0.04,Rain,Light Rain,140,2012-12-26 14:51:00
6:53 AM,43.0,42.1,97,29.66,1.5,SE,5.8,-,0.04,Rain,Light Rain,140,2012-12-26 14:53:00
7:03 AM,42.8,42.8,100,29.66,3.0,SE,5.8,-,0.01,Rain,Light Rain,130,2012-12-26 15:03:00
7:19 AM,42.8,42.8,100,29.66,6.0,SSE,4.6,-,0.01,,Overcast,160,2012-12-26 15:19:00
7:23 AM,42.8,42.8,100,29.66,2.0,Variable,3.5,-,0.01,Rain,Light Rain,0,2012-12-26 15:23:00
7:27 AM,42.8,42.8,100,29.66,1.2,SSE,8.1,-,0.02,Rain,Rain,160,2012-12-26 15:27:00
7:32 AM,42.8,42.8,100,29.66,1.2,SSE,6.9,-,0.03,Rain,Light Rain,150,2012-12-26 15:32:00
7:35 AM,42.8,42.8,100,29.66,1.5,SSE,6.9,-,0.04,Rain,Light Rain,160,2012-12-26 15:35:00
7:44 AM,42.8,42.8,100,29.66,2.5,SSE,6.9,-,0.04,Rain,Light Rain,150,2012-12-26 15:44:00
7:51 AM,42.8,42.8,100,29.66,3.0,SSE,5.8,-,0.04,Rain,Light Rain,150,2012-12-26 15:51:00
7:53 AM,43.0,42.1,97,29.67,3.0,SSE,5.8,-,0.04,Rain,Light Rain,160,2012-12-26 15:53:00
8:01 AM,42.8,42.8,100,29.66,2.5,SSE,5.8,-,0.01,Rain,Light Rain,160,2012-12-26 16:01:00
8:09 AM,42.8,42.8,100,29.66,3.0,SE,8.1,-,0.01,Rain,Light Rain,140,2012-12-26 16:09:00
8:19 AM,42.8,42.8,100,29.66,1.8,SSE,8.1,-,0.02,Rain,Light Rain,150,2012-12-26 16:19:00
8:26 AM,42.8,42.8,100,29.66,1.2,SE,5.8,-,0.02,Rain,Light Rain,140,2012-12-26 16:26:00
8:39 AM,42.8,42.8,100,29.66,1.5,SSE,8.1,-,0.04,Rain,Light Rain,150,2012-12-26 16:39:00
8:46 AM,42.8,42.8,100,29.67,1.2,SE,8.1,-,0.04,Rain,Light Rain,140,2012-12-26 16:46:00
8:53 AM,43.0,42.1,97,29.68,1.2,SSE,6.9,-,0.05,Rain,Light Rain,150,2012-12-26 16:53:00
8:57 AM,42.8,42.8,100,29.67,2.0,SE,6.9,-,0.00,Rain,Light Rain,140,2012-12-26 16:57:00
9:02 AM,42.8,42.8,100,29.67,4.0,SSE,6.9,-,0.00,Rain,Light Rain,150,2012-12-26 17:02:00
9:12 AM,42.8,42.8,100,29.68,2.5,SSE,8.1,-,0.00,Rain,Light Rain,150,2012-12-26 17:12:00
9:16 AM,42.8,42.8,100,29.67,1.8,SSE,6.9,-,0.01,Rain,Light Rain,150,2012-12-26 17:16:00
9:36 AM,42.8,42.8,100,29.68,1.2,SE,6.9,-,0.02,Rain,Light Rain,140,2012-12-26 17:36:00
9:44 AM,42.8,42.8,100,29.68,1.8,SE,8.1,-,0.03,Rain,Light Rain,140,2012-12-26 17:44:00
9:49 AM,42.8,42.8,100,29.68,1.2,SSE,9.2,-,0.04,Rain,Rain,150,2012-12-26 17:49:00
9:53 AM,43.0,42.1,97,29.68,1.2,SE,10.4,-,0.05,Rain,Light Rain,140,2012-12-26 17:53:00
10:01 AM,42.8,42.8,100,29.68,1.2,SE,9.2,-,0.01,Rain,Light Rain,140,2012-12-26 18:01:00
10:08 AM,42.8,42.8,100,29.68,1.5,SE,9.2,-,0.02,Rain,Light Rain,140,2012-12-26 18:08:00
10:18 AM,42.8,42.8,100,29.68,1.0,SSE,8.1,-,0.04,Rain,Light Rain,150,2012-12-26 18:18:00
10:53 AM,43.0,42.1,97,29.68,1.0,SSE,12.7,19.6,0.13,Rain,Rain,150,2012-12-26 18:53:00
11:05 AM,42.8,42.8,100,29.66,1.0,SE,15.0,19.6,0.05,Rain,Rain,130,2012-12-26 19:05:00
11:13 AM,42.8,42.8,100,29.66,1.2,SE,11.5,19.6,0.08,Rain,Rain,140,2012-12-26 19:13:00
11:36 AM,42.8,42.8,100,29.65,1.2,SE,9.2,21.9,0.15,Rain,Light Rain,140,2012-12-26 19:36:00
11:53 AM,44.1,43.0,96,29.65,1.0,SE,8.1,-,0.21,Rain,Rain,140,2012-12-26 19:53:00
12:07 PM,44.6,44.6,100,29.65,0.8,SE,6.9,-,0.03,Rain,Light Rain,140,2012-12-26 20:07:00
12:30 PM,44.6,44.6,100,29.64,1.0,South,9.2,-,0.08,Rain,Light Rain,190,2012-12-26 20:30:00
12:34 PM,44.6,44.6,100,29.63,0.5,South,8.1,-,0.09,Fog-Rain,Rain,180,2012-12-26 20:34:00
12:43 PM,44.6,44.6,100,29.63,1.5,Variable,5.8,-,0.11,Rain,Light Rain,0,2012-12-26 20:43:00
12:48 PM,46.4,44.6,93,29.63,0.8,SSW,9.2,-,0.11,Rain,Light Rain,200,2012-12-26 20:48:00
12:53 PM,45.0,45.0,100,29.64,0.5,South,9.2,-,0.12,Fog-Rain,Light Rain,180,2012-12-26 20:53:00
1:06 PM,46.4,44.6,93,29.63,1.5,SSW,6.9,-,0.01,Rain,Light Rain,200,2012-12-26 21:06:00
1:10 PM,46.4,44.6,93,29.63,3.0,SSW,8.1,-,0.01,Rain,Light Rain,200,2012-12-26 21:10:00
1:24 PM,46.4,44.6,93,29.63,2.5,SSW,9.2,-,0.01,,Overcast,200,2012-12-26 21:24:00
1:26 PM,46.4,44.6,93,29.63,1.2,SSW,8.1,-,0.01,Rain,Light Rain,200,2012-12-26 21:26:00
1:36 PM,46.4,44.6,93,29.62,1.5,South,6.9,-,0.01,Rain,Light Rain,190,2012-12-26 21:36:00
1:40 PM,46.4,44.6,93,29.62,2.0,South,8.1,-,0.01,Rain,Light Rain,180,2012-12-26 21:40:00
1:46 PM,46.4,44.6,93,29.62,1.8,South,8.1,-,0.01,Rain,Light Rain,180,2012-12-26 21:46:00
1:49 PM,46.4,44.6,93,29.62,0.8,South,6.9,-,0.02,Rain,Light Rain,170,2012-12-26 21:49:00
1:53 PM,46.0,45.0,96,29.62,0.5,SSE,10.4,-,0.04,Fog-Rain,Rain,160,2012-12-26 21:53:00
2:00 PM,46.4,44.6,93,29.61,0.8,SSW,8.1,18.4,0.01,Rain,Light Rain,200,2012-12-26 22:00:00
2:02 PM,46.4,44.6,93,29.61,1.5,SSW,8.1,18.4,0.01,Rain,Light Rain,200,2012-12-26 22:02:00
2:05 PM,46.4,44.6,93,29.61,3.0,SSW,6.9,-,0.01,,Overcast,200,2012-12-26 22:05:00
2:53 PM,46.9,46.0,97,29.60,2.5,SW,9.2,-,0.01,Rain,Light Rain,220,2012-12-26 22:53:00
3:05 PM,46.4,46.4,100,29.60,3.0,SW,12.7,-,0.00,Rain,Light Rain,230,2012-12-26 23:05:00
3:53 PM,43.0,41.0,93,29.68,3.0,NW,11.5,-,0.00,Rain,Light Rain,310,2012-12-26 23:53:00
3:56 PM,42.8,41.0,93,29.67,2.5,NW,12.7,-,0.00,Rain,Light Rain,310,2012-12-26 23:56:00
4:09 PM,42.8,41.0,93,29.70,3.0,NW,16.1,20.7,0.00,Rain,Light Rain,320,2012-12-27 00:09:00
4:16 PM,42.8,39.2,87,29.70,4.0,NW,12.7,21.9,0.00,Rain,Light Rain,310,2012-12-27 00:16:00
4:33 PM,42.8,39.2,87,29.73,2.5,NW,12.7,24.2,N/A,Rain,Light Rain,320,2012-12-27 00:33:00
4:53 PM,42.1,39.9,92,29.75,2.5,NW,11.5,17.3,0.01,Rain,Light Rain,320,2012-12-27 00:53:00
5:00 PM,42.8,39.2,87,29.75,3.0,NW,10.4,-,0.00,Rain,Light Rain,320,2012-12-27 01:00:00
5:39 PM,42.8,39.2,87,29.78,6.0,NW,6.9,-,0.01,Rain,Light Rain,320,2012-12-27 01:39:00
5:53 PM,41.0,39.9,96,29.79,6.0,NNW,5.8,-,0.01,Rain,Light Rain,330,2012-12-27 01:53:00
6:53 PM,41.0,39.9,96,29.81,6.0,NW,4.6,-,0.00,,Overcast,310,2012-12-27 02:53:00
7:53 PM,41.0,39.9,96,29.84,4.0,SSE,3.5,-,0.00,,Overcast,150,2012-12-27 03:53:00
8:01 PM,41.0,39.2,93,29.84,3.0,Calm,Calm,-,N/A,,Overcast,0,2012-12-27 04:01:00
8:53 PM,39.9,39.9,100,29.86,4.0,Calm,Calm,-,N/A,,Overcast,0,2012-12-27 04:53:00
9:12 PM,39.2,39.2,100,29.87,1.5,Calm,Calm,-,N/A,,Overcast,0,2012-12-27 05:12:00
9:14 PM,39.2,39.2,100,29.87,0.8,Calm,Calm,-,N/A,,Overcast,0,2012-12-27 05:14:00
9:25 PM,39.2,39.2,100,29.87,0.2,Calm,Calm,-,N/A,Fog,Fog,0,2012-12-27 05:25:00
9:39 PM,39.2,39.2,100,29.88,0.5,Calm,Calm,-,N/A,Fog,Fog,0,2012-12-27 05:39:00
9:53 PM,39.0,39.0,100,29.89,1.0,Calm,Calm,-,N/A,,Overcast,0,2012-12-27 05:53:00
10:03 PM,39.2,39.2,100,29.89,2.0,Calm,Calm,-,N/A,,Overcast,0,2012-12-27 06:03:00
10:20 PM,39.2,39.2,100,29.89,3.0,Calm,Calm,-,N/A,,Overcast,0,2012-12-27 06:20:00
10:32 PM,39.2,39.2,100,29.90,4.0,Calm,Calm,-,N/A,,Overcast,0,2012-12-27 06:32:00
10:53 PM,39.9,39.9,100,29.91,5.0,Calm,Calm,-,N/A,,Overcast,0,2012-12-27 06:53:00
11:39 PM,39.2,39.2,100,29.92,6.0,Calm,Calm,-,N/A,,Overcast,0,2012-12-27 07:39:00
11:53 PM,39.9,39.9,100,29.93,5.0,Calm,Calm,-,N/A,,Overcast,0,2012-12-27 07:53:00